SCP
0 0 0 0 0 0 0 0 0 0 0 0 0 0 0 0 0 0 0 0 0 0 0 0 0 0 0 0 0 0 0 0 0 0 0 0 0 0
0 0 0 0 0 0 0 0 0 0 0 0 0 0 0 0 0 0 0 0 0 0 0 0 0 0 0 0 -0 0 0 0 0 0 0 0 0 0
0 0 0 0 0 0 0 0 0 0 0 0 0 0 0 0 0 0 0 0 0 0 0 -0 -0 -0 -0 -0 0 0 0 0 0 0 0 0 0 0
0 0 0 0 0 0 0 0 0 0 0 0 0 0 0 0 0 0 0 0 0 0 0 -0 -0 -0 -0 -0 -0 0 -0 0 0 0 0 0 0 0
0 0 0 0 0 -0 -0 0 0 0 0 0 0 0 0 0 0 0 0 0 0 0 0 0 -0 -0 0 -0 0 0 0 0 0 0 0 0 0 0
0 0 0 0 0 0 -0 -0 0 0 0 0 0 0 0 0 0 0 0 0 0 0 0 0 0 -0 0 0 -0 0 0 0 0 0 0 0 0 0
0 0 0 0 0 0 -0 -0 0 0 0 0 0 0 0 0 0 0 0 0 0 0 0 0 0 0 0 0 0 0 0 0 0 0 0 0 0 0
0 0 0 0 0 0 -0 0 0 0 0 0 0 0 0 0 0 0 0 0 0 0 0 0 0 0 0 0 0 0 0 0 0 0 0 0 0 0
0 0 0 0 0 0 0 -0 -0 0 0 0 -0 0 -0 -0 -0 0 0 0 0 0 0 0 0 0 0 0 -0 -0 -0 0 0 -0 0 0 0 0
0 0 0 0 0 0 0 0 0 0 0 0 0 -0 -0 -0 -0 0 0 0 -0 0 0 0 0 0 0 0 -0 -0 -0 -0 -0 -0 -0 0 0 0
-0 0 0 0 0 0 0 0 0 0 -0 0 0 -0 -0 -0 0 0 0 0 0 0 0 0 0 0 0 0 0 -0 -0 -0 -0 -0 -0 -0 -0 0
0 0 -0 0 0 -0 -0 0 0 0 0 -0 0 -0 -0 -0 -0 0 0 0 -0 0 0 0 -0 0 0 0 -0 -0 -0 -0 -0 -0 -0 -0 -0 -0
0 0 0 0 0 0 0 0 0 0 0 0 0 -0 -0 0 0 -0 0 0 0 -0 -0 0 0 0 0 0 -0 -0 -0 -0 -0 -0 -0 -0 -0 0
0 0 0 0 0 0 0 0 0 0 0 0 0 0 -0 0 -0 -0 0 0 0 -0 0 -0 0 0 -0 0 0 0 -0 0 0 0 0 -0 0 -0
0 0 0 0 0 0 0 0 0 0 0 0 0 0 0 0 0 0 0 0 -0 -0 0 0 -0 0 0 0 -0 0 0 0 0 0 -0 -0 -0 -0
0 0 0 0 0 0 0 0 0 0 0 0 0 0 0 0 0 0 0 0 0 0 0 0 0 0 0 0 0 -0 -0 -0 0 0 0 0 0 0
0 0 0 0 0 0 0 0 0 0 0 0 0 0 0 0 0 0 0 0 0 0 0 0 0 0 0 0 0 0 0 0 0 0 0 0 0 0
0 0 0 0 0 0 0 0 0 0 0 0 0 0 0 0 0 0 0 0 0 0 0 0 0 0 0 0 0 0 0 0 0 0 0 0 0 0
0 0 0 0 0 0 0 0 0 0 0 0 0 0 0 0 0 0 0 0 0 0 0 0 0 0 0 0 0 0 0 0 0 0 0 0 0 0
0 0 0 0 0 0 0 0 0 0 0 0 -0 0 0 0 0 0 0 0 0 0 0 0 0 0 0 0 0 0 0 0 0 0 0 0 0 0
0 0 0 0 0 0 0 0 0 0 0 0 0 0 0 0 0 0 0 0 0 0 0 0 0 0 0 0 0 0 0 0 0 0 0 0 0 0
0 0 0 0 0 0 0 0 0 0 0 0 0 0 0 0 0 0 0 0 0 0 0 0 0 0 0 0 0 0 0 0 0 0 0 0 0 0
0 0 0 0 0 0 0 0 0 0 0 0 0 0 0 0 0 0 0 0 0 0 0 0 0 0 0 0 0 0 0 0 0 0 0 0 0 0
Wind_Speed_500mb
37 33 35 34 38 41 45 41 26 22 33 28 17 16 12 12 12 16 22 18 12 12 16 28 33 38 36 33 40 20 18 21 18 14 11 9 3 2
26 26 26 32 35 36 38 33 29 36 23 29 26 33 20 32 35 24 20 19 24 27 31 35 33 35 36 36 37 33 24 20 17 14 10 5 5 4
21 21 23 16 12 18 23 29 34 39 39 32 34 37 37 37 26 21 21 23 27 31 33 34 30 29 33 31 30 25 20 16 12 9 8 5 4 3
20 15 14 17 20 22 29 31 32 36 39 39 39 40 39 37 29 30 32 36 39 36 37 38 38 34 31 26 24 20 16 13 11 9 8 3 2 2
11 11 15 20 21 24 27 27 30 37 42 49 55 48 46 40 49 55 54 48 49 44 41 38 32 29 24 22 19 17 16 17 15 11 11 10 9 7
12 14 20 20 26 25 30 27 32 42 53 55 58 51 44 50 60 62 58 50 50 41 39 37 33 31 29 29 26 24 24 23 20 16 16 13 14 16
11 11 12 15 8 13 27 30 41 53 52 57 50 56 60 60 63 62 65 61 54 46 45 45 40 40 39 36 33 30 29 27 24 22 22 23 22 16
11 17 16 24 25 24 40 36 44 44 59 55 58 59 61 59 59 59 58 60 63 48 47 50 40 44 41 37 29 25 26 26 27 27 28 24 19 16
14 25 25 16 24 44 39 32 35 39 43 49 61 57 61 57 54 55 51 47 53 48 45 50 38 43 40 35 31 28 25 24 23 24 23 20 19 17
13 19 25 31 36 31 34 35 41 38 45 47 60 61 56 58 51 46 47 47 49 40 34 47 35 39 37 37 35 30 27 24 21 20 20 22 24 21
16 15 22 24 28 28 29 31 32 34 44 40 42 41 46 52 44 42 44 44 47 35 30 37 32 33 32 34 37 38 35 30 27 26 26 24 25 26
15 18 20 22 24 24 22 31 38 33 39 44 45 40 38 42 31 25 29 32 37 35 23 33 32 30 32 34 37 37 35 33 30 29 28 27 28 31
23 25 26 25 23 22 21 26 38 37 37 37 40 50 42 31 24 29 27 21 21 29 26 27 19 15 30 36 36 36 35 36 34 33 33 33 32 31
28 28 27 25 22 23 27 30 38 40 38 41 43 39 33 25 21 27 27 24 18 29 28 18 23 28 40 42 40 38 36 36 35 37 38 37 36 37
26 32 32 28 33 39 37 36 39 44 41 44 43 37 29 25 28 31 40 24 33 30 24 22 21 32 34 43 43 36 34 32 33 35 37 38 41 43
29 33 33 39 40 40 37 32 34 38 42 44 42 31 28 25 29 37 38 35 33 28 24 24 25 30 36 33 33 34 33 27 23 23 25 28 31 32
32 32 32 35 36 34 35 31 35 39 44 42 38 36 33 36 39 33 33 30 28 29 28 27 25 25 24 22 20 20 20 24 24 19 16 16 17 19
30 31 32 30 32 33 32 30 32 34 37 31 32 37 39 36 32 31 27 25 27 31 33 31 28 26 19 13 12 12 12 7 8 13 13 10 10 13
28 28 25 23 27 27 28 29 27 30 32 31 34 41 37 34 33 33 32 30 34 30 25 22 19 13 11 11 14 14 12 11 11 10 10 10 8 9
26 27 23 21 22 23 27 30 26 31 38 41 41 36 35 35 36 33 30 30 28 22 16 11 11 10 8 12 13 19 21 20 20 18 14 8 6 10
27 24 23 24 25 25 32 33 37 44 39 38 39 35 37 37 38 34 31 27 24 20 18 20 19 19 18 22 22 20 18 17 15 11 7 6 8 8
27 25 24 21 22 32 40 41 46 43 40 35 32 34 36 35 32 27 24 21 19 19 23 28 29 27 27 27 21 15 9 5 3 5 8 11 13 15
23 22 21 21 31 38 41 43 42 39 35 32 30 29 28 27 23 19 16 15 21 22 23 20 17 15 13 9 3 2 6 11 14 13 11 10 9 14
Wind_Direction_500mb
276 274 273 269 254 244 241 241 237 231 212 182 172 187 184 180 172 137 135 138 136 129 134 151 138 130 138 134 139 122 149 174 172 179 192 199 205 355
286 281 280 263 254 244 240 233 229 223 202 191 184 178 180 173 159 155 136 133 124 125 126 134 139 138 138 138 139 157 165 161 165 167 153 128 83 56
287 283 278 259 252 247 235 240 225 220 231 177 177 175 175 173 167 149 148 153 133 127 124 123 123 126 129 135 139 142 159 160 154 147 140 112 81 57
277 284 269 256 252 246 242 233 229 217 216 169 170 165 175 164 158 140 137 136 128 123 124 120 118 115 114 121 125 137 148 148 130 130 109 114 116 144
305 302 292 279 262 247 239 243 222 202 205 175 162 171 157 157 144 134 129 125 115 115 110 107 107 106 108 108 115 115 111 108 106 111 116 109 86 51
322 316 315 290 276 248 229 206 202 183 194 173 163 156 151 144 140 133 125 122 115 111 107 104 108 108 101 99 100 104 106 104 106 112 97 90 81 76
353 352 349 5 160 88 156 175 193 170 171 164 164 159 150 148 138 132 124 118 109 107 103 98 99 99 96 97 97 101 104 105 98 88 86 81 77 73
9 40 92 102 72 41 139 175 179 158 162 157 151 145 142 137 136 132 123 120 108 111 104 96 94 92 89 87 88 97 95 91 85 78 76 74 68 63
52 71 100 93 87 115 130 132 150 171 155 142 141 140 136 140 142 137 133 122 117 117 110 100 96 90 79 75 76 81 90 94 87 78 74 66 57 53
72 89 85 80 90 108 113 132 133 125 123 131 141 145 145 147 142 137 131 123 115 114 110 105 99 90 81 77 81 87 94 100 94 82 73 69 62 52
76 98 95 95 96 105 126 123 132 140 137 135 142 145 141 142 140 142 140 132 126 121 117 111 105 95 86 80 80 80 83 86 85 81 79 76 67 56
78 103 108 102 105 109 136 147 135 147 145 144 129 137 149 150 147 158 148 132 125 126 118 119 111 98 87 84 84 84 83 84 84 83 80 74 67 63
96 105 113 109 103 113 128 144 151 144 146 150 138 155 152 156 134 151 156 147 115 121 120 121 100 106 116 106 94 89 83 79 77 77 75 73 69 67
90 98 109 102 101 110 122 133 148 146 139 147 149 147 145 145 148 144 149 140 119 112 106 97 109 116 116 109 97 89 84 82 81 80 78 77 77 76
89 92 104 99 105 106 110 120 138 146 149 152 154 149 141 139 136 127 130 133 134 123 106 89 104 118 110 105 102 95 90 86 86 85 86 86 82 78
97 95 94 105 107 109 111 110 137 148 150 149 151 143 140 142 141 127 135 141 136 128 110 109 102 119 114 103 96 93 84 86 95 97 95 89 82 74
105 106 107 110 113 114 115 117 130 138 146 149 146 138 129 129 134 137 135 137 134 127 121 123 123 123 119 106 100 91 84 78 78 91 104 98 80 68
116 114 112 108 110 123 124 121 124 137 140 135 134 131 127 132 130 128 126 131 133 131 127 120 131 141 130 106 89 71 62 67 86 77 88 93 81 66
119 123 126 117 115 114 121 129 125 134 134 139 138 133 131 131 127 124 126 122 130 137 133 132 132 137 129 99 73 64 59 68 95 107 91 96 94 47
119 122 123 116 122 130 137 138 134 129 131 127 129 129 128 127 129 128 125 126 135 143 150 166 182 161 94 109 92 82 86 90 94 98 103 90 31 18
102 101 107 113 116 121 129 131 131 128 127 124 125 128 135 130 126 124 121 117 115 115 106 102 117 130 126 127 121 114 108 104 102 98 75 31 12 7
94 95 101 110 118 129 134 134 132 128 125 122 120 127 131 133 132 131 124 117 115 109 100 99 101 105 117 123 122 117 109 94 45 11 353 343 335 333
100 94 89 110 127 133 135 133 131 126 122 121 129 134 136 138 138 131 119 121 150 146 141 132 126 121 125 130 134 309 315 320 327 343 344 338 326 318
Wind_Speed_850mb
37 33 35 34 38 41 45 41 26 22 33 28 17 16 12 12 12 16 22 18 12 12 16 28 33 38 36 33 40 20 18 21 18 14 11 9 3 2
26 26 26 32 35 36 38 33 29 36 23 29 26 33 20 32 35 24 20 19 24 27 31 35 33 35 36 36 37 33 24 20 17 14 10 5 5 4
21 21 23 16 12 18 23 29 34 39 39 32 34 37 37 37 26 21 21 23 27 31 33 34 30 29 33 31 30 25 20 16 12 9 8 5 4 3
20 15 14 17 20 22 29 31 32 36 39 39 39 40 39 37 29 30 32 36 39 36 37 38 38 34 31 26 24 20 16 13 11 9 8 3 2 2
11 11 15 20 21 24 27 27 30 37 42 49 55 48 46 40 49 55 54 48 49 44 41 38 32 29 24 22 19 17 16 17 15 11 11 10 9 7
12 14 20 20 26 25 30 27 32 42 53 55 58 51 44 50 60 62 58 50 50 41 39 37 33 31 29 29 26 24 24 23 20 16 16 13 14 16
11 11 12 15 8 13 27 30 41 53 52 57 50 56 60 60 63 62 65 61 54 46 45 45 40 40 39 36 33 30 29 27 24 22 22 23 22 16
11 17 16 24 25 24 40 36 44 44 59 55 58 59 61 59 59 59 58 60 63 48 47 50 40 44 41 37 29 25 26 26 27 27 28 24 19 16
14 25 25 16 24 44 39 32 35 39 43 49 61 57 61 57 54 55 51 47 53 48 45 50 38 43 40 35 31 28 25 24 23 24 23 20 19 17
13 19 25 31 36 31 34 35 41 38 45 47 60 61 56 58 51 46 47 47 49 40 34 47 35 39 37 37 35 30 27 24 21 20 20 22 24 21
16 15 22 24 28 28 29 31 32 34 44 40 42 41 46 52 44 42 44 44 47 35 30 37 32 33 32 34 37 38 35 30 27 26 26 24 25 26
15 18 20 22 24 24 22 31 38 33 39 44 45 40 38 42 31 25 29 32 37 35 23 33 32 30 32 34 37 37 35 33 30 29 28 27 28 31
23 25 26 25 23 22 21 26 38 37 37 37 40 50 42 31 24 29 27 21 21 29 26 27 19 15 30 36 36 36 35 36 34 33 33 33 32 31
28 28 27 25 22 23 27 30 38 40 38 41 43 39 33 25 21 27 27 24 18 29 28 18 23 28 40 42 40 38 36 36 35 37 38 37 36 37
26 32 32 28 33 39 37 36 39 44 41 44 43 37 29 25 28 31 40 24 33 30 24 22 21 32 34 43 43 36 34 32 33 35 37 38 41 43
29 33 33 39 40 40 37 32 34 38 42 44 42 31 28 25 29 37 38 35 33 28 24 24 25 30 36 33 33 34 33 27 23 23 25 28 31 32
32 32 32 35 36 34 35 31 35 39 44 42 38 36 33 36 39 33 33 30 28 29 28 27 25 25 24 22 20 20 20 24 24 19 16 16 17 19
30 31 32 30 32 33 32 30 32 34 37 31 32 37 39 36 32 31 27 25 27 31 33 31 28 26 19 13 12 12 12 7 8 13 13 10 10 13
28 28 25 23 27 27 28 29 27 30 32 31 34 41 37 34 33 33 32 30 34 30 25 22 19 13 11 11 14 14 12 11 11 10 10 10 8 9
26 27 23 21 22 23 27 30 26 31 38 41 41 36 35 35 36 33 30 30 28 22 16 11 11 10 8 12 13 19 21 20 20 18 14 8 6 10
27 24 23 24 25 25 32 33 37 44 39 38 39 35 37 37 38 34 31 27 24 20 18 20 19 19 18 22 22 20 18 17 15 11 7 6 8 8
27 25 24 21 22 32 40 41 46 43 40 35 32 34 36 35 32 27 24 21 19 19 23 28 29 27 27 27 21 15 9 5 3 5 8 11 13 15
23 22 21 21 31 38 41 43 42 39 35 32 30 29 28 27 23 19 16 15 21 22 23 20 17 15 13 9 3 2 6 11 14 13 11 10 9 14
Wind_Direction_850mb
276 274 273 269 254 244 241 241 237 231 212 182 172 187 184 180 172 137 135 138 136 129 134 151 138 130 138 134 139 122 149 174 172 179 192 199 205 355
286 281 280 263 254 244 240 233 229 223 202 191 184 178 180 173 159 155 136 133 124 125 126 134 139 138 138 138 139 157 165 161 165 167 153 128 83 56
287 283 278 259 252 247 235 240 225 220 231 177 177 175 175 173 167 149 148 153 133 127 124 123 123 126 129 135 139 142 159 160 154 147 140 112 81 57
277 284 269 256 252 246 242 233 229 217 216 169 170 165 175 164 158 140 137 136 128 123 124 120 118 115 114 121 125 137 148 148 130 130 109 114 116 144
305 302 292 279 262 247 239 243 222 202 205 175 162 171 157 157 144 134 129 125 115 115 110 107 107 106 108 108 115 115 111 108 106 111 116 109 86 51
322 316 315 290 276 248 229 206 202 183 194 173 163 156 151 144 140 133 125 122 115 111 107 104 108 108 101 99 100 104 106 104 106 112 97 90 81 76
353 352 349 5 160 88 156 175 193 170 171 164 164 159 150 148 138 132 124 118 109 107 103 98 99 99 96 97 97 101 104 105 98 88 86 81 77 73
9 40 92 102 72 41 139 175 179 158 162 157 151 145 142 137 136 132 123 120 108 111 104 96 94 92 89 87 88 97 95 91 85 78 76 74 68 63
52 71 100 93 87 115 130 132 150 171 155 142 141 140 136 140 142 137 133 122 117 117 110 100 96 90 79 75 76 81 90 94 87 78 74 66 57 53
72 89 85 80 90 108 113 132 133 125 123 131 141 145 145 147 142 137 131 123 115 114 110 105 99 90 81 77 81 87 94 100 94 82 73 69 62 52
76 98 95 95 96 105 126 123 132 140 137 135 142 145 141 142 140 142 140 132 126 121 117 111 105 95 86 80 80 80 83 86 85 81 79 76 67 56
78 103 108 102 105 109 136 147 135 147 145 144 129 137 149 150 147 158 148 132 125 126 118 119 111 98 87 84 84 84 83 84 84 83 80 74 67 63
96 105 113 109 103 113 128 144 151 144 146 150 138 155 152 156 134 151 156 147 115 121 120 121 100 106 116 106 94 89 83 79 77 77 75 73 69 67
90 98 109 102 101 110 122 133 148 146 139 147 149 147 145 145 148 144 149 140 119 112 106 97 109 116 116 109 97 89 84 82 81 80 78 77 77 76
89 92 104 99 105 106 110 120 138 146 149 152 154 149 141 139 136 127 130 133 134 123 106 89 104 118 110 105 102 95 90 86 86 85 86 86 82 78
97 95 94 105 107 109 111 110 137 148 150 149 151 143 140 142 141 127 135 141 136 128 110 109 102 119 114 103 96 93 84 86 95 97 95 89 82 74
105 106 107 110 113 114 115 117 130 138 146 149 146 138 129 129 134 137 135 137 134 127 121 123 123 123 119 106 100 91 84 78 78 91 104 98 80 68
116 114 112 108 110 123 124 121 124 137 140 135 134 131 127 132 130 128 126 131 133 131 127 120 131 141 130 106 89 71 62 67 86 77 88 93 81 66
119 123 126 117 115 114 121 129 125 134 134 139 138 133 131 131 127 124 126 122 130 137 133 132 132 137 129 99 73 64 59 68 95 107 91 96 94 47
119 122 123 116 122 130 137 138 134 129 131 127 129 129 128 127 129 128 125 126 135 143 150 166 182 161 94 109 92 82 86 90 94 98 103 90 31 18
102 101 107 113 116 121 129 131 131 128 127 124 125 128 135 130 126 124 121 117 115 115 106 102 117 130 126 127 121 114 108 104 102 98 75 31 12 7
94 95 101 110 118 129 134 134 132 128 125 122 120 127 131 133 132 131 124 117 115 109 100 99 101 105 117 123 122 117 109 94 45 11 353 343 335 333
100 94 89 110 127 133 135 133 131 126 122 121 129 134 136 138 138 131 119 121 150 146 141 132 126 121 125 130 134 309 315 320 327 343 344 338 326 318